TimeEDT,TemperatureF,Dew PointF,Humidity,Sea Level PressureIn,VisibilityMPH,Wind Direction,Wind SpeedMPH,Gust SpeedMPH,PrecipitationIn,Events,Conditions,WindDirDegrees,DateUTC
12:51 AM,59.9,48.9,67,30.71,10.0,Variable,3.5,-,N/A,,Clear,0,2013-08-15 04:51:00
1:51 AM,57.9,48.9,72,30.71,10.0,Calm,Calm,-,N/A,,Clear,0,2013-08-15 05:51:00
2:51 AM,54.0,50.0,86,30.73,10.0,Calm,Calm,-,N/A,,Clear,0,2013-08-15 06:51:00
3:51 AM,52.0,48.9,89,30.74,10.0,Calm,Calm,-,N/A,,Clear,0,2013-08-15 07:51:00
4:51 AM,50.9,48.9,93,30.76,10.0,Calm,Calm,-,N/A,,Clear,0,2013-08-15 08:51:00
5:51 AM,50.0,47.8,92,30.79,10.0,Calm,Calm,-,N/A,,Clear,0,2013-08-15 09:51:00
6:51 AM,54.0,50.0,86,30.80,10.0,Calm,Calm,-,N/A,,Clear,0,2013-08-15 10:51:00
7:51 AM,59.9,50.0,70,30.81,10.0,Calm,Calm,-,N/A,,Clear,0,2013-08-15 11:51:00
8:51 AM,64.9,50.0,58,30.80,10.0,NW,5.8,-,N/A,,Clear,320,2013-08-15 12:51:00
9:51 AM,68.9,47.8,47,30.81,10.0,WNW,10.4,-,N/A,,Clear,300,2013-08-15 13:51:00
10:51 AM,70.9,47.8,44,30.81,10.0,Variable,5.8,-,N/A,,Clear,0,2013-08-15 14:51:00
11:51 AM,72.9,45.9,38,30.80,10.0,WNW,11.5,-,N/A,,Clear,290,2013-08-15 15:51:00
12:51 PM,72.9,45.9,38,30.78,10.0,NW,8.1,-,N/A,,Partly Cloudy,310,2013-08-15 16:51:00
1:51 PM,74.8,48.9,40,30.77,10.0,Variable,6.9,-,N/A,,Scattered Clouds,0,2013-08-15 17:51:00
2:51 PM,75.9,48.9,38,30.76,10.0,West,10.4,-,N/A,,Scattered Clouds,260,2013-08-15 18:51:00
3:51 PM,77.0,47.8,36,30.76,10.0,WNW,6.9,-,N/A,,Scattered Clouds,290,2013-08-15 19:51:00
4:51 PM,75.9,47.8,37,30.76,10.0,West,5.8,-,N/A,,Clear,270,2013-08-15 20:51:00
5:51 PM,74.8,47.8,38,30.76,10.0,Variable,5.8,-,N/A,,Scattered Clouds,0,2013-08-15 21:51:00
6:51 PM,70.9,52.0,51,30.78,10.0,WSW,3.5,-,N/A,,Scattered Clouds,250,2013-08-15 22:51:00
7:51 PM,68.0,50.9,54,30.79,10.0,Calm,Calm,-,N/A,,Clear,0,2013-08-15 23:51:00